Hourly Weather Roundup
Issued by NWS Central Illinois

Home | Current Version | Previous Version | Text Only | Print | Product List | Glossary On
Versions: 1 2 3 4 5 6 7 8 9 10 11 12 13 14 15 16 17 18 19 20 21 22 23 24 25 26 27 28 29 30 31 32 33 34 35 36 37 38 39 40 41 42 43 44 45 46 47 48 49 50
000
NZUS43 KILX 281310
HWRILX

AREA WEATHER ROUNDUP
NATIONAL WEATHER SERVICE, LINCOLN IL
800 AM CDT SAT MAY 28 2016


CITY           SKY/WX    TMP DP  RH WIND       PRES   REMARKS
BLOOMINGTON    CLOUDY    71  68  90 S17       29.92R
CHAMPAIGN      CLOUDY    71  66  84 S16       29.94R
DANVILLE       CLOUDY    71  65  83 S14       29.93S
DECATUR        CLOUDY    71  65  81 S14       29.93R
EFFINGHAM      CLOUDY    70  68  93 SE8       29.97R
FLORA          CLOUDY    72  67  83 S12       29.97R
GALESBURG      CLOUDY    69  66  90 S10       29.85R
JACKSONVILLE   CLOUDY    69  65  88 S9        29.89R
LACON          CLOUDY    70  64  81 S10G16    29.87R
LAWRENCEVILLE  CLOUDY    73  67  81 S15       29.99S
LITCHFIELD     CLOUDY    67  64  88 S15       29.93R
$$


CITY           SKY/WX    TMP DP  RH WIND       PRES   REMARKS
LINCOLN        CLOUDY    71  67  87 S13       29.90R
MACOMB         CLOUDY    70  66  89 S15       29.87R
MATTOON        CLOUDY    71  65  81 S12       29.94S
MT CARMEL AP   CLOUDY    73  65  78 S13       29.99R
OLNEY-NOBLE AP CLOUDY    72  66  83 S10       29.98R
PARIS          CLOUDY    71  67  88 S8        29.98R
PEORIA         CLOUDY    70  64  81 S13       29.88R
PONTIAC        CLOUDY    73  68  85 S18G24    29.91R
RANTOUL        CLOUDY    72  68  87 S15       29.94R
ROBINSON       CLOUDY    72  67  84 S8        29.99R
SPRINGFIELD    CLOUDY    70  65  84 S14       29.90R
TAYLORVILLE    CLOUDY    69  65  89 S15       29.92R
$$

...REGIONAL REPORTS...


CITY           SKY/WX    TMP DP  RH WIND       PRES   REMARKS
CHICAGO O`HARE CLOUDY    71  65  81 S16G24    29.88S
KANKAKEE       PTSUNNY   71  65  81 S14G20    29.93R
MOLINE         CLOUDY    72  66  81 S12G20    29.80S
MOUNT STERLING NOT AVBL
MOUNT VERNON   CLOUDY    70  63  78 S9        29.98R
PITTSFIELD     CLOUDY    69  66  91 S8        29.90R
QUINCY         CLOUDY    68  64  87 S10       29.87R
ROCKFORD       CLOUDY    73  66  78 S15G25    29.86R
$$


CITY           SKY/WX    TMP DP  RH WIND       PRES   REMARKS
BURLINGTON     CLOUDY    69  67  93 S14       29.83R
CEDAR RAPIDS   MOSUNNY   65  64  97 SE8       29.77S
DES MOINES     CLOUDY    65  60  84 S8        29.76R
KIRKSVILLE     CLOUDY    65  62  90 S9        29.84R
OTTUMWA        CLOUDY    66  64  93 S12       29.78R
ST LOUIS       CLOUDY    70  64  81 S10       29.92R
$$


CITY           SKY/WX    TMP DP  RH WIND       PRES   REMARKS
TERRE HAUTE    CLOUDY    73  65  75 S12       29.99R
EVANSVILLE     CLOUDY    72  65  78 S7        30.02R
INDIANAPOLIS   CLOUDY    74  66  76 S12       30.01R
LAFAYETTE      CLOUDY    73  64  73 S7        29.96S
MADISON        CLOUDY    70  65  84 S15       29.78R
MILWAUKEE      PTSUNNY   71  65  81 S14       29.84S
$$





USA.gov is the U.S. government's official web portal to all federal, state and local government web resources and services.